THAICOM 6

Last updated on Fri Nov 07 2025 00:02:49 GMT+0000 (Coordinated Universal Time)

1 39500U 14002A 25310.23447572 -.00000112 00000+0 00000+0 0 9992 2 39500 0.0712 99.2155 0002499 97.6670 11.7627 1.00271376 43221
UTC large
Height (km)
Speed (km/s)
/
Latitude / Longitude
Inclination (degrees)
Orbital Period (minutes)
Azimuth
Elevation
Range (km)
Doppler Factor

Next 0 passes for location: London (51.5072 / 0.1276)

Sorry there are no passes over London.